Terug naar catalogus

THOR ABLESTAR DEB

ActiefLEO
NORAD 416·DEBRIS·🇺🇸 United States

Gelanceerd Jun 29, 1961 vanaf Cape Canaveral Space Force Station

Loading…

Volgende Passages (komende 24 uur)

TLE

VersSource: Space-Track

Epoch: Sep 14, 2026, 10:09 UTC

1 00416U 61015ER  26257.42347419  .00000101  00000-0  93414-4 0  9997
2 00416  66.4988  46.4234 0069777 114.2435 246.5965 14.14811311344477

Volg THOR ABLESTAR DEB in realtime met AllMySat

Download on the App Store